Council Bluffs, IA

6:04 PM CST on February 06, 2016 (GMT -0600)
Council Bluffs Municipal

Weather History for KCBF - June, 2013

Change the Weather History Date:

Tuesday, June 11, 2013

  Actual Average Record
Temperature  
Mean Temperature 76 °F -  
Max Temperature 84 °F 77 °F 98 °F (2001)
Min Temperature 68 °F 59 °F 55 °F (2003)
Cooling Degree Days 11    
Growing Degree Days 26 (Base 50)    
Moisture  
Dew Point 69 °F    
Average Humidity 74    
Maximum Humidity 94    
Minimum Humidity 58    
Precipitation  
Precipitation 0.00 in - - ()
Sea Level Pressure  
Sea Level Pressure 29.77 in    
Wind  
Wind Speed 8 mph (SE)    
Max Wind Speed 14 mph    
Max Gust Speed 18 mph    
Visibility 10 miles    
Events      
Averages and records for this station are not official NWS values.
T = Trace of Precipitation, MM = Missing Value Source: NWS Daily Summary

Daily Weather History Graph

Daily Weather History Graph

Search for Another Location

Airport or City:

Trip Planner

Search our weather history database for the weather conditions in past years. The results will help you decide how hot, cold, wet, or windy it might be!

Date:

Astronomy

Jun. 11, 2013 Rise Set
Actual Time 5:49 AM CDT 8:56 PM CDT
Civil Twilight 5:15 AM CDT 9:29 PM CDT
Nautical Twilight 4:32 AM CDT 10:12 PM CDT
Astronomical Twilight 3:41 AM CDT 11:04 PM CDT
Moon 8:34 AM CDT (6/11) 10:58 PM CDT (6/11)
Length of Visible Light 16h 13m
Length of Day
15h 06m
Waxing Crescent, 8% of the Moon is Illuminated
Jun 11
Waxing Crescent
Jun 16
First Quarter
Jun 23
Full
Jun 29
Last Quarter
Jul 8
New

Hourly Weather History & Observations

Time (CDT) Temp. Heat Index Dew Point Humidity Pressure Visibility Wind Dir Wind Speed Gust Speed Precip Events Conditions
12:15 AM 69.8 °F - 66.2 °F 88% 29.85 in 10.0 mi ESE 6.9 mph - N/A   Clear
12:35 AM 68.0 °F - 66.2 °F 94% 29.85 in 10.0 mi ESE 6.9 mph - N/A   Clear
12:55 AM 68.0 °F - 66.2 °F 94% 29.84 in 10.0 mi SE 8.1 mph - N/A   Clear
1:15 AM 68.0 °F - 66.2 °F 94% 29.83 in 10.0 mi SE 8.1 mph - N/A   Clear
1:35 AM 68.0 °F - 66.2 °F 94% 29.83 in 10.0 mi SE 6.9 mph - N/A   Clear
1:55 AM 68.0 °F - 66.2 °F 94% 29.83 in 10.0 mi SE 6.9 mph - N/A   Clear
2:15 AM 68.0 °F - 64.4 °F 88% 29.83 in 10.0 mi SE 6.9 mph - N/A   Clear
2:35 AM 68.0 °F - 64.4 °F 88% 29.82 in 10.0 mi ESE 6.9 mph - N/A   Clear
12:35 PM 78.8 °F - 73.4 °F 83% 29.80 in 10.0 mi North - - N/A   Clear
12:55 PM 80.6 °F 84.6 °F 71.6 °F 74% 29.81 in 10.0 mi North - - N/A   Clear
1:15 PM 82.4 °F 87.2 °F 71.6 °F 70% 29.80 in 10.0 mi East 6.9 mph - N/A   Clear
1:35 PM 82.4 °F 87.2 °F 71.6 °F 70% 29.82 in 10.0 mi SE 5.8 mph - N/A   Light Drizzle
1:55 PM 80.6 °F 85.4 °F 73.4 °F 79% 29.82 in 10.0 mi SE 6.9 mph - N/A   Clear
2:15 PM 80.6 °F 85.4 °F 73.4 °F 79% 29.81 in 10.0 mi SE 10.4 mph - N/A   Clear
2:35 PM 80.6 °F 84.6 °F 71.6 °F 74% 29.81 in 10.0 mi East 8.1 mph - N/A   Clear
2:55 PM 80.6 °F 85.4 °F 73.4 °F 79% 29.79 in 10.0 mi ESE 11.5 mph - N/A   Clear
3:15 PM 80.6 °F 84.6 °F 71.6 °F 74% 29.74 in 10.0 mi ESE 13.8 mph - N/A   Clear
3:35 PM 80.6 °F 84.6 °F 71.6 °F 74% 29.75 in 10.0 mi East 10.4 mph 18.4 mph N/A   Clear
3:55 PM 82.4 °F 87.2 °F 71.6 °F 70% 29.76 in 10.0 mi SE 9.2 mph - N/A   Clear
4:15 PM 82.4 °F 86.3 °F 69.8 °F 66% 29.76 in 10.0 mi ESE 5.8 mph - N/A   Clear
4:35 PM 82.4 °F 86.3 °F 69.8 °F 66% 29.74 in 10.0 mi ESE 10.4 mph - N/A   Clear
4:55 PM 82.4 °F 86.3 °F 69.8 °F 66% 29.76 in 10.0 mi Calm Calm - N/A   Clear
5:15 PM 82.4 °F 85.4 °F 68.0 °F 62% 29.75 in 10.0 mi SSE 5.8 mph 12.7 mph N/A   Clear
5:35 PM 82.4 °F 85.4 °F 68.0 °F 62% 29.74 in 10.0 mi SE 6.9 mph - N/A   Clear
5:55 PM 80.6 °F 83.9 °F 69.8 °F 70% 29.74 in 10.0 mi SSE 8.1 mph - N/A   Clear
6:15 PM 84.2 °F 87.3 °F 68.0 °F 58% 29.74 in 10.0 mi ESE 4.6 mph - N/A   Clear
6:35 PM 84.2 °F 87.3 °F 68.0 °F 58% 29.74 in 10.0 mi SSE 6.9 mph - N/A   Clear
6:55 PM 84.2 °F 88.4 °F 69.8 °F 62% 29.74 in 10.0 mi ESE 4.6 mph - N/A   Clear
7:15 PM 84.2 °F 88.4 °F 69.8 °F 62% 29.74 in 10.0 mi East 5.8 mph - N/A   Clear
7:35 PM 82.4 °F 86.3 °F 69.8 °F 66% 29.73 in 10.0 mi SE 8.1 mph - N/A   Clear
7:55 PM 80.6 °F 83.9 °F 69.8 °F 70% 29.73 in 10.0 mi SE 11.5 mph - N/A   Clear
8:15 PM 80.6 °F 83.9 °F 69.8 °F 70% 29.73 in 10.0 mi SE 9.2 mph - N/A   Clear
8:35 PM 78.8 °F - 69.8 °F 74% 29.73 in 10.0 mi SE 9.2 mph - N/A   Clear
8:55 PM 78.8 °F - 68.0 °F 69% 29.73 in 10.0 mi ESE 6.9 mph - N/A   Clear
9:15 PM 78.8 °F - 68.0 °F 69% 29.74 in 10.0 mi ESE 6.9 mph - N/A   Clear
9:35 PM 77.0 °F - 68.0 °F 74% 29.75 in 10.0 mi ESE 6.9 mph - N/A   Clear
9:55 PM 77.0 °F - 68.0 °F 74% 29.75 in 10.0 mi North - - N/A   Clear
10:15 PM 77.0 °F - 68.0 °F 74% 29.75 in 10.0 mi SE 9.2 mph - N/A   Clear
10:35 PM 77.0 °F - 66.2 °F 69% 29.74 in 10.0 mi SE 11.5 mph - N/A   Clear
10:55 PM 77.0 °F - 64.4 °F 65% 29.74 in 10.0 mi SE 11.5 mph - N/A   Clear
11:15 PM 77.0 °F - 64.4 °F 65% 29.75 in 10.0 mi SE 8.1 mph - N/A   Clear
11:35 PM 77.0 °F - 64.4 °F 65% 29.75 in 10.0 mi SE 9.2 mph - N/A   Clear
11:55 PM 77.0 °F - 64.4 °F 65% 29.74 in 10.0 mi SE 12.7 mph - N/A   Clear